Time,TemperatureF,DewpointF,PressureIn,WindDirection,WindDirectionDegrees,WindSpeedMPH,WindSpeedGustMPH,Humidity,HourlyPrecipIn,Conditions,Clouds,dailyrainin,SoftwareType,DateUTC
2013-06-24 00:02:00,63.0,57.0,-100.00,South,185,9.0,14.0,82,-99.99,,,-99.99,,2013-06-24 05:02:00,
2013-06-24 00:12:00,63.0,57.0,-100.00,South,185,9.0,14.0,82,-99.99,,,-99.99,,2013-06-24 05:12:00,
2013-06-24 00:22:00,63.0,57.0,-100.00,South,185,9.0,14.0,82,-99.99,,,-99.99,,2013-06-24 05:22:00,
2013-06-24 00:35:00,63.0,58.0,-100.00,South,190,10.0,14.0,84,-99.99,,,-99.99,,2013-06-24 05:35:00,
2013-06-24 00:47:00,63.0,58.0,-100.00,South,190,10.0,14.0,84,-99.99,,,-99.99,,2013-06-24 05:47:00,
2013-06-24 01:13:00,63.0,58.0,-100.00,SSW,200,10.0,15.0,84,-99.99,,,-99.99,,2013-06-24 06:13:00,
2013-06-24 01:23:00,63.0,58.0,-100.00,SSW,200,10.0,15.0,84,-99.99,,,-99.99,,2013-06-24 06:23:00,
2013-06-24 01:47:00,63.0,57.0,-100.00,SSW,200,9.0,14.0,82,-99.99,,,-99.99,,2013-06-24 06:47:00,
2013-06-24 02:03:00,63.0,57.0,-100.00,SSW,200,9.0,14.0,82,-99.99,,,-99.99,,2013-06-24 07:03:00,
2013-06-24 02:37:00,63.0,58.0,-100.00,SSW,195,9.0,15.0,82,-99.99,,,-99.99,,2013-06-24 07:37:00,
2013-06-24 02:49:00,63.0,58.0,-100.00,SSW,195,9.0,15.0,82,-99.99,,,-99.99,,2013-06-24 07:49:00,
2013-06-24 02:57:00,63.0,58.0,-100.00,SSW,195,9.0,15.0,82,-99.99,,,-99.99,,2013-06-24 07:57:00,
2013-06-24 03:03:00,63.0,58.0,-100.00,SSW,200,9.0,15.0,84,-99.99,,,-99.99,,2013-06-24 08:03:00,
2013-06-24 03:14:00,63.0,58.0,-100.00,SSW,200,9.0,15.0,84,-99.99,,,-99.99,,2013-06-24 08:14:00,
2013-06-24 03:26:00,63.0,58.0,-100.00,SSW,200,9.0,15.0,84,-99.99,,,-99.99,,2013-06-24 08:26:00,
2013-06-24 03:47:00,62.0,58.0,-100.00,SSW,200,9.0,17.0,85,-99.99,,,-99.99,,2013-06-24 08:47:00,
2013-06-24 03:55:00,62.0,58.0,-100.00,SSW,200,9.0,17.0,85,-99.99,,,-99.99,,2013-06-24 08:55:00,
2013-06-24 04:05:00,63.0,57.0,-100.00,SSW,205,11.0,18.0,81,-99.99,,,-99.99,,2013-06-24 09:05:00,
2013-06-24 04:25:00,63.0,57.0,-100.00,SSW,205,11.0,18.0,81,-99.99,,,-99.99,,2013-06-24 09:25:00,
2013-06-24 05:03:00,62.0,56.0,-100.00,SSW,205,9.0,16.0,79,-99.99,,,-99.99,,2013-06-24 10:03:00,
2013-06-24 05:14:00,62.0,56.0,-100.00,SSW,205,9.0,16.0,79,-99.99,,,-99.99,,2013-06-24 10:14:00,
2013-06-24 05:23:00,62.0,56.0,-100.00,SSW,205,9.0,16.0,79,-99.99,,,-99.99,,2013-06-24 10:23:00,
2013-06-24 05:37:00,61.0,56.0,-100.00,SSW,210,7.0,13.0,83,-99.99,,,-99.99,,2013-06-24 10:37:00,
2013-06-24 05:57:00,61.0,56.0,-100.00,SSW,210,7.0,13.0,83,-99.99,,,-99.99,,2013-06-24 10:57:00,
2013-06-24 06:02:00,61.0,56.0,-100.00,SSW,200,8.0,12.0,86,-99.99,,,-99.99,,2013-06-24 11:02:00,
2013-06-24 06:14:00,61.0,56.0,-100.00,SSW,200,8.0,12.0,86,-99.99,,,-99.99,,2013-06-24 11:14:00,
2013-06-24 06:28:00,61.0,56.0,-100.00,SSW,200,8.0,12.0,86,-99.99,,,-99.99,,2013-06-24 11:28:00,
2013-06-24 06:49:00,61.0,57.0,-100.00,SSW,200,6.0,9.0,87,-99.99,,,-99.99,,2013-06-24 11:49:00,
2013-06-24 06:57:00,61.0,57.0,-100.00,SSW,200,6.0,9.0,87,-99.99,,,-99.99,,2013-06-24 11:57:00,
2013-06-24 07:04:00,61.0,58.0,-100.00,SSW,200,7.0,12.0,88,-99.99,,,-99.99,,2013-06-24 12:04:00,
2013-06-24 07:16:00,61.0,58.0,-100.00,SSW,200,7.0,12.0,88,-99.99,,,-99.99,,2013-06-24 12:16:00,
2013-06-24 07:23:00,61.0,58.0,-100.00,SSW,200,7.0,12.0,88,-99.99,,,-99.99,,2013-06-24 12:23:00,
2013-06-24 07:49:00,63.0,58.0,-100.00,SSW,200,11.0,17.0,86,-99.99,,,-99.99,,2013-06-24 12:49:00,
2013-06-24 07:55:00,63.0,58.0,-100.00,SSW,200,11.0,17.0,86,-99.99,,,-99.99,,2013-06-24 12:55:00,
2013-06-24 08:05:00,65.0,59.0,-100.00,SW,220,11.0,20.0,80,-99.99,,,-99.99,,2013-06-24 13:05:00,
2013-06-24 08:14:00,65.0,59.0,-100.00,SW,220,11.0,20.0,80,-99.99,,,-99.99,,2013-06-24 13:14:00,
2013-06-24 08:23:00,65.0,59.0,-100.00,SW,220,11.0,20.0,80,-99.99,,,-99.99,,2013-06-24 13:23:00,
2013-06-24 08:46:00,68.0,59.0,-100.00,SW,215,11.0,17.0,74,-99.99,,,-99.99,,2013-06-24 13:46:00,
2013-06-24 08:57:00,68.0,59.0,-100.00,SW,215,11.0,17.0,74,-99.99,,,-99.99,,2013-06-24 13:57:00,
2013-06-24 09:02:00,71.0,59.0,-100.00,SW,225,14.0,21.0,66,-99.99,,,-99.99,,2013-06-24 14:02:00,
2013-06-24 09:15:00,71.0,59.0,-100.00,SW,225,14.0,21.0,66,-99.99,,,-99.99,,2013-06-24 14:15:00,
2013-06-24 09:23:00,71.0,59.0,-100.00,SW,225,14.0,21.0,66,-99.99,,,-99.99,,2013-06-24 14:23:00,
2013-06-24 09:46:00,73.0,59.0,-100.00,WSW,240,14.0,19.0,62,-99.99,,,-99.99,,2013-06-24 14:46:00,
2013-06-24 09:59:00,73.0,59.0,-100.00,WSW,240,14.0,19.0,62,-99.99,,,-99.99,,2013-06-24 14:59:00,
2013-06-24 10:05:00,75.0,60.0,-100.00,WSW,240,11.0,16.0,59,-99.99,,,-99.99,,2013-06-24 15:05:00,
2013-06-24 10:27:00,75.0,60.0,-100.00,WSW,240,11.0,16.0,59,-99.99,,,-99.99,,2013-06-24 15:27:00,
2013-06-24 10:57:00,76.0,58.0,-100.00,WSW,250,13.0,17.0,54,-99.99,,,-99.99,,2013-06-24 15:57:00,
2013-06-24 11:03:00,78.0,59.0,-100.00,WSW,255,11.0,15.0,52,-99.99,,,-99.99,,2013-06-24 16:03:00,
2013-06-24 11:14:00,78.0,59.0,-100.00,WSW,255,11.0,15.0,52,-99.99,,,-99.99,,2013-06-24 16:14:00,
2013-06-24 11:23:00,78.0,59.0,-100.00,WSW,255,11.0,15.0,52,-99.99,,,-99.99,,2013-06-24 16:23:00,
2013-06-24 11:45:00,79.0,58.0,-100.00,WSW,250,11.0,17.0,49,-99.99,,,-99.99,,2013-06-24 16:45:00,
2013-06-24 11:56:00,79.0,58.0,-100.00,WSW,250,11.0,17.0,49,-99.99,,,-99.99,,2013-06-24 16:56:00,
2013-06-24 12:05:00,81.0,58.0,-100.00,WSW,250,12.0,18.0,45,-99.99,,,-99.99,,2013-06-24 17:05:00,
2013-06-24 12:14:00,81.0,58.0,-100.00,WSW,250,12.0,18.0,45,-99.99,,,-99.99,,2013-06-24 17:14:00,
2013-06-24 12:24:00,81.0,58.0,-100.00,WSW,250,12.0,18.0,45,-99.99,,,-99.99,,2013-06-24 17:24:00,
2013-06-24 12:47:00,82.0,57.0,-100.00,SW,220,11.0,19.0,43,-99.99,,,-99.99,,2013-06-24 17:47:00,
2013-06-24 12:57:00,82.0,57.0,-100.00,SW,220,11.0,19.0,43,-99.99,,,-99.99,,2013-06-24 17:57:00,
2013-06-24 13:02:00,83.0,57.0,-100.00,SW,220,13.0,21.0,42,-99.99,,,-99.99,,2013-06-24 18:02:00,
2013-06-24 13:49:00,83.0,55.0,-100.00,SW,220,12.0,21.0,38,-99.99,,,-99.99,,2013-06-24 18:49:00,
2013-06-24 13:55:00,83.0,55.0,-100.00,SW,220,12.0,21.0,38,-99.99,,,-99.99,,2013-06-24 18:55:00,
2013-06-24 14:06:00,83.0,56.0,-100.00,SW,235,14.0,21.0,39,-99.99,,,-99.99,,2013-06-24 19:06:00,
2013-06-24 14:13:00,83.0,56.0,-100.00,SW,235,14.0,21.0,39,-99.99,,,-99.99,,2013-06-24 19:13:00,
2013-06-24 14:25:00,83.0,56.0,-100.00,SW,235,14.0,21.0,39,-99.99,,,-99.99,,2013-06-24 19:25:00,
2013-06-24 14:46:00,85.0,56.0,-100.00,WSW,250,13.0,21.0,37,-99.99,,,-99.99,,2013-06-24 19:46:00,
2013-06-24 15:04:00,85.0,55.0,-100.00,WSW,245,12.0,20.0,36,-99.99,,,-99.99,,2013-06-24 20:04:00,
2013-06-24 15:12:00,85.0,55.0,-100.00,WSW,245,12.0,20.0,36,-99.99,,,-99.99,,2013-06-24 20:12:00,
2013-06-24 15:23:00,85.0,55.0,-100.00,WSW,245,12.0,20.0,36,-99.99,,,-99.99,,2013-06-24 20:23:00,
2013-06-24 15:47:00,86.0,56.0,-100.00,SW,230,12.0,20.0,36,-99.99,,,-99.99,,2013-06-24 20:47:00,
2013-06-24 16:03:00,85.0,55.0,-100.00,SSW,195,11.0,23.0,37,-99.99,,,-99.99,,2013-06-24 21:03:00,
2013-06-24 16:13:00,85.0,55.0,-100.00,SSW,195,11.0,23.0,37,-99.99,,,-99.99,,2013-06-24 21:13:00,
2013-06-24 16:25:00,85.0,55.0,-100.00,SSW,195,11.0,23.0,37,-99.99,,,-99.99,,2013-06-24 21:25:00,
2013-06-24 16:48:00,86.0,57.0,-100.00,SW,220,11.0,22.0,37,-99.99,,,-99.99,,2013-06-24 21:48:00,
2013-06-24 16:54:00,86.0,57.0,-100.00,SW,220,11.0,22.0,37,-99.99,,,-99.99,,2013-06-24 21:54:00,
2013-06-24 17:04:00,87.0,57.0,-100.00,SSW,200,11.0,19.0,36,-99.99,,,-99.99,,2013-06-24 22:04:00,
2013-06-24 17:14:00,87.0,57.0,-100.00,SSW,200,11.0,19.0,36,-99.99,,,-99.99,,2013-06-24 22:14:00,
2013-06-24 17:23:00,87.0,57.0,-100.00,SSW,200,11.0,19.0,36,-99.99,,,-99.99,,2013-06-24 22:23:00,
2013-06-24 17:56:00,86.0,55.0,-100.00,SW,220,13.0,22.0,34,-99.99,,,-99.99,,2013-06-24 22:56:00,
2013-06-24 18:05:00,86.0,55.0,-100.00,SW,215,9.0,14.0,35,-99.99,,,-99.99,,2013-06-24 23:05:00,
2013-06-24 18:13:00,86.0,55.0,-100.00,SW,215,9.0,14.0,35,-99.99,,,-99.99,,2013-06-24 23:13:00,
2013-06-24 18:26:00,86.0,55.0,-100.00,SW,215,9.0,14.0,35,-99.99,,,-99.99,,2013-06-24 23:26:00,
2013-06-24 18:46:00,87.0,56.0,-100.00,South,185,10.0,16.0,35,-99.99,,,-99.99,,2013-06-24 23:46:00,
2013-06-24 19:03:00,87.0,56.0,-100.00,South,185,10.0,16.0,35,-99.99,,,-99.99,,2013-06-25 00:03:00,
2013-06-24 20:03:00,84.0,54.0,-100.00,South,175,7.0,13.0,36,-99.99,,,-99.99,,2013-06-25 01:03:00,
2013-06-24 20:15:00,84.0,54.0,-100.00,South,175,7.0,13.0,36,-99.99,,,-99.99,,2013-06-25 01:15:00,
2013-06-24 20:23:00,84.0,54.0,-100.00,South,175,7.0,13.0,36,-99.99,,,-99.99,,2013-06-25 01:23:00,
2013-06-24 20:46:00,84.0,54.0,-100.00,South,175,9.0,14.0,36,-99.99,,,-99.99,,2013-06-25 01:46:00,
2013-06-24 20:56:00,84.0,54.0,-100.00,South,175,9.0,14.0,36,-99.99,,,-99.99,,2013-06-25 01:56:00,
2013-06-24 21:04:00,82.0,56.0,-100.00,South,170,10.0,18.0,40,-99.99,,,-99.99,,2013-06-25 02:04:00,
2013-06-24 21:15:00,82.0,56.0,-100.00,South,170,10.0,18.0,40,-99.99,,,-99.99,,2013-06-25 02:15:00,
2013-06-24 21:24:00,82.0,56.0,-100.00,South,170,10.0,18.0,40,-99.99,,,-99.99,,2013-06-25 02:24:00,
2013-06-24 22:30:00,79.0,58.0,-100.00,South,170,6.0,9.0,48,-99.99,,,-99.99,,2013-06-25 03:30:00,
2013-06-24 23:01:00,78.0,60.0,-100.00,SSE,150,6.0,10.0,53,-99.99,,,-99.99,,2013-06-25 04:01:00,
2013-06-24 23:11:00,77.0,61.0,-100.00,SSE,155,7.0,11.0,58,-99.99,,,-99.99,,2013-06-25 04:11:00,
2013-06-24 23:22:00,77.0,61.0,-100.00,SSE,155,7.0,11.0,58,-99.99,,,-99.99,,2013-06-25 04:22:00,
2013-06-24 23:43:00,75.0,62.0,-100.00,SE,135,4.0,6.0,64,-99.99,,,-99.99,,2013-06-25 04:43:00,
2013-06-24 23:52:00,75.0,62.0,-100.00,SE,135,4.0,6.0,64,-99.99,,,-99.99,,2013-06-25 04:52:00,